"Period start","avg(HW err(1)/warn(2) (#))","avg(Visibility (m))","avg(Weather code (#))","avg(Precip intensity (mm/h))","min(HW err(1)/warn(2) (#))","max(HW err(1)/warn(2) (#))","std(HW err(1)/warn(2) (#))","med(HW err(1)/warn(2) (#))","min(Visibility (m))","max(Visibility (m))","std(Visibility (m))","med(Visibility (m))","min(Weather code (#))","max(Weather code (#))","std(Weather code (#))","med(Weather code (#))","min(Precip intensity (mm/h))","max(Precip intensity (mm/h))","std(Precip intensity (mm/h))","med(Precip intensity (mm/h))"
2017-08-23 00:00:00,0,6003,4,0.00,0,0,0,0,3623,11612,2399,5188,4,4,0,4,0.00,0.00,0.00,0.00
2017-08-23 00:10:00,0,9980,4,0.00,0,0,0,0,4937,16944,4414,9498,4,4,0,4,0.00,0.00,0.00,0.00
2017-08-23 00:20:00,0,12269,4,0.00,0,0,0,0,6131,25916,5654,11059,4,4,0,4,0.00,0.00,0.00,0.00
2017-08-23 00:30:00,0,32751,1,0.00,0,0,0,0,22352,46755,8322,31098,0,4,2,0,0.00,0.00,0.00,0.00
2017-08-23 00:40:00,0,46031,0,0.00,0,0,0,0,36795,50000,4108,47248,0,0,0,0,0.00,0.00,0.00,0.00
2017-08-23 00:50:00,0,46845,0,0.00,0,0,0,0,39973,50000,3347,47432,0,0,0,0,0.00,0.00,0.00,0.00
2017-08-23 01:00:00,0,39340,0,0.00,0,0,0,0,33971,50000,5193,37116,0,0,0,0,0.00,0.00,0.00,0.00
2017-08-23 01:10:00,0,43831,0,0.00,0,0,0,0,39923,50000,3189,43190,0,0,0,0,0.00,0.00,0.00,0.00
2017-08-23 01:20:00,0,44794,0,0.00,0,0,0,0,39352,50000,3553,45539,0,0,0,0,0.00,0.00,0.00,0.00
2017-08-23 01:30:00,0,46553,0,0.00,0,0,0,0,42271,50000,3250,47082,0,0,0,0,0.00,0.00,0.00,0.00
2017-08-23 01:40:00,0,45480,0,0.00,0,0,0,0,38117,50000,4195,46484,0,0,0,0,0.00,0.00,0.00,0.00
2017-08-23 01:50:00,0,47263,0,0.00,0,0,0,0,41430,50000,2593,47694,0,0,0,0,0.00,0.00,0.00,0.00
2017-08-23 02:00:00,0,45699,0,0.00,0,0,0,0,39575,50000,3285,45364,0,0,0,0,0.00,0.00,0.00,0.00
2017-08-23 02:10:00,0,46782,0,0.00,0,0,0,0,38022,50000,4094,48512,0,0,0,0,0.00,0.00,0.00,0.00
2017-08-23 02:20:00,0,48397,0,0.00,0,0,0,0,43544,50000,2020,49364,0,0,0,0,0.00,0.00,0.00,0.00
2017-08-23 02:30:00,0,42809,0,0.00,0,0,0,0,35917,50000,4207,41918,0,0,0,0,0.00,0.00,0.00,0.00
2017-08-23 02:40:00,0,42968,0,0.00,0,0,0,0,33703,50000,5040,44223,0,0,0,0,0.00,0.00,0.00,0.00
2017-08-23 02:50:00,0,42097,0,0.00,0,0,0,0,30421,50000,7970,44325,0,0,0,0,0.00,0.00,0.00,0.00
2017-08-23 03:00:00,0,43749,0,0.00,0,0,0,0,37602,50000,3780,42840,0,0,0,0,0.00,0.00,0.00,0.00
2017-08-23 03:10:00,0,44042,0,0.00,0,0,0,0,37710,50000,4983,43267,0,0,0,0,0.00,0.00,0.00,0.00
2017-08-23 03:20:00,0,45563,0,0.00,0,0,0,0,36046,50000,4321,46232,0,0,0,0,0.00,0.00,0.00,0.00
2017-08-23 03:30:00,0,45565,0,0.00,0,0,0,0,31932,50000,6114,49291,0,0,0,0,0.00,0.00,0.00,0.00
2017-08-23 03:40:00,0,37251,0,0.00,0,0,0,0,10714,50000,11213,39809,0,0,0,0,0.00,0.00,0.00,0.00
2017-08-23 03:50:00,0,46915,0,0.00,0,0,0,0,43052,50000,2804,46947,0,0,0,0,0.00,0.00,0.00,0.00
2017-08-23 04:00:00,0,45200,0,0.00,0,0,0,0,38457,50000,4020,45596,0,0,0,0,0.00,0.00,0.00,0.00
2017-08-23 04:10:00,0,38970,0,0.00,0,0,0,0,29561,50000,5822,39628,0,0,0,0,0.00,0.00,0.00,0.00
2017-08-23 04:20:00,0,39599,0,0.00,0,0,0,0,26913,50000,6865,38248,0,0,0,0,0.00,0.00,0.00,0.00
2017-08-23 04:30:00,0,40605,0,0.00,0,0,0,0,22663,50000,8556,39050,0,0,0,0,0.00,0.00,0.00,0.00
2017-08-23 04:40:00,0,43178,0,0.00,0,0,0,0,34014,50000,5821,42986,0,0,0,0,0.00,0.00,0.00,0.00
2017-08-23 04:50:00,0,46065,0,0.00,0,0,0,0,35373,50000,5106,49363,0,0,0,0,0.00,0.00,0.00,0.00
2017-08-23 05:00:00,0,43409,0,0.00,0,0,0,0,35856,48528,3839,43556,0,0,0,0,0.00,0.00,0.00,0.00
2017-08-23 05:10:00,0,44901,0,0.00,0,0,0,0,39553,50000,3715,44826,0,0,0,0,0.00,0.00,0.00,0.00
2017-08-23 05:20:00,0,48424,0,0.00,0,0,0,0,42543,50000,2193,49257,0,0,0,0,0.00,0.00,0.00,0.00
2017-08-23 05:30:00,0,45994,0,0.00,0,0,0,0,36763,50000,4247,47005,0,0,0,0,0.00,0.00,0.00,0.00
2017-08-23 05:40:00,0,47286,0,0.00,0,0,0,0,37487,50000,3877,49226,0,0,0,0,0.00,0.00,0.00,0.00
2017-08-23 05:50:00,0,43227,0,0.00,0,0,0,0,32673,50000,4857,43621,0,0,0,0,0.00,0.00,0.00,0.00
2017-08-23 06:00:00,0,35039,0,0.00,0,0,0,0,27879,41918,4255,35406,0,0,0,0,0.00,0.00,0.00,0.00
2017-08-23 06:10:00,0,35542,12,0.62,0,0,0,0,22934,43552,6102,36974,0,61,24,0,0.00,4.85,1.47,0.00
2017-08-23 06:20:00,0,24256,49,0.88,0,0,0,0,17527,36141,5616,22668,0,61,24,61,0.00,3.50,1.31,0.17
2017-08-23 06:30:00,0,39662,0,0.00,0,0,0,0,29000,48230,5591,40098,0,0,0,0,0.00,0.00,0.00,0.00
2017-08-23 06:40:00,0,37889,0,0.00,0,0,0,0,32554,43999,3248,37276,0,0,0,0,0.00,0.00,0.00,0.00
2017-08-23 06:50:00,0,40236,0,0.00,0,0,0,0,31359,46108,4887,42434,0,0,0,0,0.00,0.00,0.00,0.00
2017-08-23 07:00:00,0,48021,0,0.00,0,0,0,0,44587,50000,1885,48525,0,0,0,0,0.00,0.00,0.00,0.00
2017-08-23 07:10:00,0,47347,0,0.00,0,0,0,0,39686,50000,3562,49352,0,0,0,0,0.00,0.00,0.00,0.00
2017-08-23 07:20:00,0,46229,0,0.00,0,0,0,0,40157,50000,3775,48022,0,0,0,0,0.00,0.00,0.00,0.00
2017-08-23 07:30:00,0,49277,0,0.00,0,0,0,0,46963,50000,945,49676,0,0,0,0,0.00,0.00,0.00,0.00
2017-08-23 07:40:00,0,49821,0,0.00,0,0,0,0,48419,50000,471,50000,0,0,0,0,0.00,0.00,0.00,0.00
2017-08-23 07:50:00,0,48879,0,0.00,0,0,0,0,43096,50000,2197,50000,0,0,0,0,0.00,0.00,0.00,0.00
2017-08-23 08:00:00,0,39126,0,0.00,0,0,0,0,34634,44554,3162,38640,0,0,0,0,0.00,0.00,0.00,0.00
2017-08-23 08:10:00,0,41506,0,0.00,0,0,0,0,33157,46655,4488,43096,0,0,0,0,0.00,0.00,0.00,0.00
2017-08-23 08:20:00,0,48396,0,0.00,0,0,0,0,44895,50000,1601,48879,0,0,0,0,0.00,0.00,0.00,0.00
2017-08-23 08:30:00,0,45196,0,0.00,0,0,0,0,37610,50000,4064,44912,0,0,0,0,0.00,0.00,0.00,0.00
2017-08-23 08:40:00,0,42481,0,0.00,0,0,0,0,34721,48415,4244,43504,0,0,0,0,0.00,0.00,0.00,0.00
2017-08-23 08:50:00,0,42664,0,0.00,0,0,0,0,36920,50000,4624,42088,0,0,0,0,0.00,0.00,0.00,0.00
2017-08-23 09:00:00,0,43492,0,0.00,0,0,0,0,38592,50000,4070,42788,0,0,0,0,0.00,0.00,0.00,0.00
2017-08-23 09:10:00,0,48916,0,0.00,0,0,0,0,46355,50000,1359,49574,0,0,0,0,0.00,0.00,0.00,0.00
2017-08-23 09:20:00,0,49267,0,0.00,0,0,0,0,45872,50000,1335,50000,0,0,0,0,0.00,0.00,0.00,0.00
2017-08-23 09:30:00,0,43416,0,0.00,0,0,0,0,28118,50000,8056,49222,0,0,0,0,0.00,0.00,0.00,0.00
2017-08-23 09:40:00,0,44276,0,0.00,0,0,0,0,36431,48278,3367,44886,0,0,0,0,0.00,0.00,0.00,0.00
2017-08-23 09:50:00,0,46383,0,0.00,0,0,0,0,43045,49569,2472,46930,0,0,0,0,0.00,0.00,0.00,0.00
2017-08-23 10:00:00,0,44637,0,0.00,0,0,0,0,35941,50000,4293,46138,0,0,0,0,0.00,0.00,0.00,0.00
2017-08-23 10:10:00,0,45174,0,0.00,0,0,0,0,38851,50000,4069,45299,0,0,0,0,0.00,0.00,0.00,0.00
2017-08-23 10:20:00,0,42880,0,0.00,0,0,0,0,34715,50000,3980,43264,0,0,0,0,0.00,0.00,0.00,0.00
2017-08-23 10:30:00,0,46726,0,0.00,0,0,0,0,39655,50000,3196,48011,0,0,0,0,0.00,0.00,0.00,0.00
2017-08-23 10:40:00,0,49357,0,0.00,0,0,0,0,45875,50000,1245,50000,0,0,0,0,0.00,0.00,0.00,0.00
2017-08-23 10:50:00,0,48630,0,0.00,0,0,0,0,44955,50000,1637,49114,0,0,0,0,0.00,0.00,0.00,0.00
2017-08-23 11:00:00,0,48516,0,0.00,0,0,0,0,44761,50000,2099,50000,0,0,0,0,0.00,0.00,0.00,0.00
2017-08-23 11:10:00,0,49686,0,0.00,0,0,0,0,47632,50000,723,50000,0,0,0,0,0.00,0.00,0.00,0.00
2017-08-23 11:20:00,0,49972,0,0.00,0,0,0,0,49725,50000,82,50000,0,0,0,0,0.00,0.00,0.00,0.00
2017-08-23 11:30:00,0,49974,0,0.00,0,0,0,0,49740,50000,78,50000,0,0,0,0,0.00,0.00,0.00,0.00
2017-08-23 11:40:00,0,49332,0,0.00,0,0,0,0,44735,50000,1558,50000,0,0,0,0,0.00,0.00,0.00,0.00
2017-08-23 11:50:00,0,49704,0,0.00,0,0,0,0,48285,50000,597,50000,0,0,0,0,0.00,0.00,0.00,0.00
2017-08-23 12:00:00,0,49259,0,0.00,0,0,0,0,45189,50000,1476,50000,0,0,0,0,0.00,0.00,0.00,0.00
2017-08-23 12:10:00,0,49903,0,0.00,0,0,0,0,49028,50000,292,50000,0,0,0,0,0.00,0.00,0.00,0.00
2017-08-23 12:20:00,0,48859,0,0.00,0,0,0,0,46882,50000,1236,49462,0,0,0,0,0.00,0.00,0.00,0.00
2017-08-23 12:30:00,0,50000,0,0.00,0,0,0,0,50000,50000,0,50000,0,0,0,0,0.00,0.00,0.00,0.00
2017-08-23 12:40:00,0,50000,0,0.00,0,0,0,0,50000,50000,0,50000,0,0,0,0,0.00,0.00,0.00,0.00
2017-08-23 12:50:00,0,49828,0,0.00,0,0,0,0,48284,50000,515,50000,0,0,0,0,0.00,0.00,0.00,0.00
2017-08-23 13:00:00,0,49191,0,0.00,0,0,0,0,45919,50000,1618,50000,0,0,0,0,0.00,0.00,0.00,0.00
2017-08-23 13:10:00,0,49417,0,0.00,0,0,0,0,46602,50000,1186,50000,0,0,0,0,0.00,0.00,0.00,0.00
2017-08-23 13:20:00,0,48794,0,0.00,0,0,0,0,44925,50000,1710,50000,0,0,0,0,0.00,0.00,0.00,0.00
2017-08-23 13:30:00,0,49994,0,0.00,0,0,0,0,49945,50000,16,50000,0,0,0,0,0.00,0.00,0.00,0.00
2017-08-23 13:40:00,0,50000,0,0.00,0,0,0,0,50000,50000,0,50000,0,0,0,0,0.00,0.00,0.00,0.00
2017-08-23 13:50:00,0,49608,0,0.00,0,0,0,0,47917,50000,786,50000,0,0,0,0,0.00,0.00,0.00,0.00
2017-08-23 14:00:00,0,49185,0,0.00,0,0,0,0,44896,50000,1694,50000,0,0,0,0,0.00,0.00,0.00,0.00
2017-08-23 14:10:00,0,50000,0,0.00,0,0,0,0,50000,50000,0,50000,0,0,0,0,0.00,0.00,0.00,0.00
2017-08-23 14:20:00,0,50000,0,0.00,0,0,0,0,50000,50000,0,50000,0,0,0,0,0.00,0.00,0.00,0.00
2017-08-23 14:30:00,0,49442,0,0.00,0,0,0,0,46025,50000,1235,50000,0,0,0,0,0.00,0.00,0.00,0.00
2017-08-23 14:40:00,0,50000,0,0.00,0,0,0,0,50000,50000,0,50000,0,0,0,0,0.00,0.00,0.00,0.00
2017-08-23 14:50:00,0,50000,0,0.00,0,0,0,0,50000,50000,0,50000,0,0,0,0,0.00,0.00,0.00,0.00
2017-08-23 15:00:00,0,49925,0,0.00,0,0,0,0,49248,50000,226,50000,0,0,0,0,0.00,0.00,0.00,0.00
2017-08-23 15:10:00,0,50000,0,0.00,0,0,0,0,50000,50000,0,50000,0,0,0,0,0.00,0.00,0.00,0.00
2017-08-23 15:20:00,0,50000,0,0.00,0,0,0,0,50000,50000,0,50000,0,0,0,0,0.00,0.00,0.00,0.00
2017-08-23 15:30:00,0,49853,0,0.00,0,0,0,0,49257,50000,267,50000,0,0,0,0,0.00,0.00,0.00,0.00
2017-08-23 15:40:00,0,49656,0,0.00,0,0,0,0,47094,50000,861,50000,0,0,0,0,0.00,0.00,0.00,0.00
2017-08-23 15:50:00,0,50000,0,0.00,0,0,0,0,50000,50000,0,50000,0,0,0,0,0.00,0.00,0.00,0.00
2017-08-23 16:00:00,0,49927,0,0.00,0,0,0,0,49274,50000,218,50000,0,0,0,0,0.00,0.00,0.00,0.00
2017-08-23 16:10:00,0,50000,0,0.00,0,0,0,0,50000,50000,0,50000,0,0,0,0,0.00,0.00,0.00,0.00
2017-08-23 16:20:00,0,50000,0,0.00,0,0,0,0,50000,50000,0,50000,0,0,0,0,0.00,0.00,0.00,0.00
2017-08-23 16:30:00,0,49842,0,0.00,0,0,0,0,48422,50000,473,50000,0,0,0,0,0.00,0.00,0.00,0.00
2017-08-23 16:40:00,0,49756,0,0.00,0,0,0,0,48570,50000,498,50000,0,0,0,0,0.00,0.00,0.00,0.00
2017-08-23 16:50:00,0,50000,0,0.00,0,0,0,0,50000,50000,0,50000,0,0,0,0,0.00,0.00,0.00,0.00
2017-08-23 17:00:00,0,49663,0,0.00,0,0,0,0,46903,50000,924,50000,0,0,0,0,0.00,0.00,0.00,0.00
2017-08-23 17:10:00,0,49837,0,0.00,0,0,0,0,48891,50000,351,50000,0,0,0,0,0.00,0.00,0.00,0.00
2017-08-23 17:20:00,0,49961,0,0.00,0,0,0,0,49609,50000,117,50000,0,0,0,0,0.00,0.00,0.00,0.00
2017-08-23 17:30:00,0,50000,0,0.00,0,0,0,0,50000,50000,0,50000,0,0,0,0,0.00,0.00,0.00,0.00
2017-08-23 17:40:00,0,49923,0,0.00,0,0,0,0,49226,50000,232,50000,0,0,0,0,0.00,0.00,0.00,0.00
2017-08-23 17:50:00,0,49945,0,0.00,0,0,0,0,49446,50000,166,50000,0,0,0,0,0.00,0.00,0.00,0.00
2017-08-23 18:00:00,0,48371,0,0.00,0,0,0,0,38710,50000,3549,50000,0,0,0,0,0.00,0.00,0.00,0.00
2017-08-23 18:10:00,0,26481,0,0.00,0,0,0,0,19419,38042,5295,26136,0,0,0,0,0.00,0.00,0.00,0.00
2017-08-23 18:20:00,0,15675,0,0.00,0,0,0,0,11731,20275,2728,15586,0,0,0,0,0.00,0.00,0.00,0.00
2017-08-23 18:30:00,0,14072,0,0.00,0,0,0,0,11057,17957,1907,13784,0,0,0,0,0.00,0.00,0.00,0.00
2017-08-23 18:40:00,0,13960,0,0.00,0,0,0,0,10226,17110,2108,14052,0,0,0,0,0.00,0.00,0.00,0.00
2017-08-23 18:50:00,0,11201,0,0.00,0,0,0,0,8174,14356,1987,11453,0,0,0,0,0.00,0.00,0.00,0.00
2017-08-23 19:00:00,0,12688,0,0.00,0,0,0,0,8918,20495,4119,10432,0,0,0,0,0.00,0.00,0.00,0.00
2017-08-23 19:10:00,0,34432,0,0.00,0,0,0,0,22667,40830,5567,36648,0,0,0,0,0.00,0.00,0.00,0.00
2017-08-23 19:20:00,0,46268,0,0.00,0,0,0,0,31857,50000,6420,50000,0,0,0,0,0.00,0.00,0.00,0.00
2017-08-23 19:30:00,0,43093,0,0.00,0,0,0,0,21745,50000,8761,45919,0,0,0,0,0.00,0.00,0.00,0.00
2017-08-23 19:40:00,0,21179,6,0.00,0,0,0,0,11591,28036,5318,22874,0,61,18,0,0.00,0.00,0.00,0.00
2017-08-23 19:50:00,0,17766,52,0.51,0,0,0,0,10032,31934,8654,13416,51,61,3,51,0.15,0.95,0.33,0.45
2017-08-23 20:00:00,0,41178,51,0.16,0,0,0,0,25983,50000,7691,44176,51,51,0,51,0.00,0.40,0.13,0.15
2017-08-23 20:10:00,1,41962,38,0.07,0,2,1,0,34628,50000,4737,41976,0,61,25,51,0.00,0.30,0.11,0.03
2017-08-23 20:20:00,2,37350,59,0.08,2,2,0,2,30562,41160,3503,38208,51,61,4,61,0.00,0.30,0.09,0.05
2017-08-23 20:30:00,2,39934,52,0.10,2,2,0,2,30925,49980,6274,38870,51,61,3,51,0.05,0.25,0.06,0.08
2017-08-23 20:40:00,2,38110,51,0.40,2,2,0,2,23445,47495,6777,38886,51,51,0,51,0.05,1.05,0.34,0.30
2017-08-23 20:50:00,2,24587,51,0.39,2,2,0,2,17619,36288,7257,21812,51,51,0,51,0.10,0.85,0.23,0.33
2017-08-23 21:00:00,2,27033,51,0.60,2,2,0,2,17805,37548,5409,28027,51,52,0,51,0.10,1.25,0.36,0.57
2017-08-23 21:10:00,2,24100,52,1.05,2,2,0,2,19186,29513,2841,23676,51,52,0,52,0.45,2.40,0.55,0.95
2017-08-23 21:20:00,2,21050,60,2.64,2,2,0,2,16549,26534,3078,20569,52,61,3,61,1.10,3.50,0.71,2.85
2017-08-23 21:30:00,2,17950,61,5.07,2,2,0,2,14835,21638,2287,17632,61,62,0,61,1.60,11.80,3.35,3.50
2017-08-23 21:40:00,2,17675,61,5.69,2,2,0,2,13430,23369,2685,17460,61,62,0,61,2.90,10.20,2.42,5.47
2017-08-23 21:50:00,2,24701,61,2.89,2,2,0,2,18486,30955,4073,24710,61,61,0,61,1.15,7.25,1.89,2.02
2017-08-23 22:00:00,2,30410,59,2.04,2,2,0,2,21126,41775,6538,28044,52,61,4,61,0.90,3.50,0.90,1.95
2017-08-23 22:10:00,2,28432,61,1.91,2,2,0,2,22919,35995,4216,28104,61,61,0,61,0.75,3.05,0.80,1.83
2017-08-23 22:20:00,2,27855,56,1.07,2,2,0,2,23483,33887,3366,27955,52,61,4,56,0.80,1.55,0.18,1.02
2017-08-23 22:30:00,2,20528,56,1.36,2,2,0,2,15948,31034,3832,19862,52,61,4,52,0.70,2.60,0.51,1.25
2017-08-23 22:40:00,2,22076,55,1.96,2,2,0,2,19136,24560,1942,22193,52,61,4,52,1.25,2.50,0.40,2.08
2017-08-23 22:50:00,2,21115,58,2.04,0,2,1,2,19017,28757,2922,19959,52,61,4,61,1.05,3.30,0.62,1.98
2017-08-23 23:00:00,2,23242,61,2.44,0,2,1,2,19548,28074,2577,22890,61,61,0,61,1.65,3.60,0.56,2.35
2017-08-23 23:10:00,2,23377,56,0.89,0,2,1,2,17058,34612,6016,20011,52,61,4,56,0.25,1.60,0.45,0.73
2017-08-23 23:20:00,0,24818,52,0.98,0,0,0,0,18671,34862,4757,23692,52,52,0,52,0.25,1.75,0.38,1.05
2017-08-23 23:30:00,0,28046,59,1.01,0,0,0,0,21802,31256,2837,28868,52,61,4,61,0.40,1.60,0.40,0.90
2017-08-23 23:40:00,0,23086,52,0.74,0,0,0,0,18746,32294,4239,22428,52,52,0,52,0.25,1.45,0.33,0.78
2017-08-23 23:50:00,0,27522,52,0.49,0,0,0,0,20802,35313,3516,27125,51,52,0,52,0.20,0.80,0.16,0.47
